Regional Weather Roundup
Issued by NWS

Home | Current Version | Previous Version | Text Only | Print | Product List | Glossary Off
Versions: 1 2 3 4 5 6 7 8 9 10 11 12 13 14 15 16 17 18 19 20 21 22 23 24 25 26 27 28 29 30 31 32 33 34 35 36 37 38 39 40 41 42 43

000
ASUS43 KDMX 280007
RWRIA

WEATHER ROUNDUP FOR IOWA
NATIONAL WEATHER SERVICE DES MOINES IA
600 PM CST SAT DEC 27 2014

NOTE: "FAIR" INDICATES FEW OR NO CLOUDS BELOW 12,000 FEET WITH NO
SIGNIFICANT WEATHER AND/OR OBSTRUCTIONS TO VISIBILITY.

* - THESE STATIONS ARE NOT NWS STATIONS...THUS NOT UNDER NWS
QUALITY CONTROL.  THEY ALSO DO NOT REPORT WEATHER SUCH
AS PRECIPITATION OR FOG.

IAZ001>003-012>014-020>022-031>034-043>046-280100-
   NORTHWEST IOWA

CITY           SKY/WX    TMP DP  RH WIND       PRES   REMARKS
CARROLL *      CLEAR     16  12  86 W7        30.21S WCI   6
CHEROKEE *     CLEAR     11   8  91 CALM      30.21S
DENISON *      CLEAR     18  14  86 W5        30.20R WCI  11
LE MARS *      CLEAR     12  10  92 CALM      30.22R
ORANGE CITY *  CLEAR     10   9  92 SW5       30.18S WCI   2
SHELDON *      CLEAR     10   7  85 SW6       30.16S WCI   1
SIOUX CITY     CLEAR     11   8  88 SW3       30.23S
6HR MIN TEMP:  11; 6HR MAX TEMP:  22;

SPENCER        CLEAR     11   6  81 SW9       30.18R WCI  -2
6HR MIN TEMP:  10; 6HR MAX TEMP:  20;

STORM LAKE *   CLEAR     12   9  85 W13       30.19R WCI  -3
$$

IAZ055>058-069>071-079>083-090>094-280100-
   SOUTHWEST IOWA

CITY           SKY/WX    TMP DP  RH WIND       PRES   REMARKS
ATLANTIC *     CLEAR     21  18  86 W7        30.23R WCI  13
AUDUBON *      CLEAR     19  12  73 CALM      30.21R
CLARINDA *     CLEAR     25  19  80 CALM      30.26S
COUNCIL BLFS * CLEAR     21  16  79 W6        30.23R WCI  14
CRESTON *      PTCLDY    21  19  93 NW8       30.22R WCI  12
HARLAN  *      CLEAR     19  18  93 W6        30.26R WCI  11
LAMONI         CLOUDY    26  20  77 W10       30.23R WCI  16
6HR MIN TEMP:  26; 6HR MAX TEMP:  29;

RED OAK *      CLEAR     23  19  86 NW3       30.24S
SHENANDOAH *   CLEAR     25  19  80 NW6       30.27R WCI  18
$$

IAZ047>049-059>061-072>074-084-280100-
   CENTRAL IOWA

CITY           SKY/WX    TMP DP  RH WIND       PRES   REMARKS
AMES           MOCLDY    23  17  78 W8        30.21S WCI  14
6HR MIN TEMP:  23; 6HR MAX TEMP:  28;

ANKENY *       PTCLDY    25  19  80 NW9G15    30.22S WCI  15
CHARITON *     CLOUDY    27  21  80 NW10      30.22R WCI  17
DES MOINES     PTCLDY    25  19  78 NW9       30.22R WCI  15
6HR MIN TEMP:  25; 6HR MAX TEMP:  30;

GRINNELL*      MOCLDY    25  21  86 W10       30.20S WCI  15
KNOXVILLE *    CLOUDY    27  19  74 W9        30.20S WCI  17
MARSHALLTOWN   CLEAR     21  15  78 NW12      30.19R WCI   9
6HR MIN TEMP:  21; 6HR MAX TEMP:  27;

PELLA *        CLOUDY    27  22  80 W7        30.23R WCI  20
PERRY *          N/A     21  19  93 NW6       30.22R WCI  14
$$

IAZ004>006-015-016-023>025-035-036-280100-
   NORTH CENTRAL IOWA

CITY           SKY/WX    TMP DP  RH WIND       PRES   REMARKS
ALGONA *       CLEAR     16  12  86 SW9       30.19R WCI   4
CLARION *      CLEAR     14  12  92 SW8       30.19S WCI   3
ESTHERVILLE    CLEAR     14   9  80 SW9       30.15S WCI   2
6HR MIN TEMP:  14; 6HR MAX TEMP:  19;

FORT DODGE *   CLEAR     16  10  79 W7        30.20S WCI   6
MASON CITY     CLEAR     13   8  81 W10       30.17S WCI   0
6HR MIN TEMP:  11; 6HR MAX TEMP:  21;

FOREST CITY *  CLEAR     14   9  79 SW3       30.16R
IOWA FALLS *     N/A     19  16  86 W9        30.20R WCI   9
$$

IAZ007>011-017>019-026>030-037>042-050>054-066-280100-
   NORTHEAST IOWA

CITY           SKY/WX    TMP DP  RH WIND       PRES   REMARKS
CEDAR RAPIDS   PTCLDY    25  21  85 W12       30.18R WCI  14
6HR MIN TEMP:  25; 6HR MAX TEMP:  32;

CHARLES CITY * CLEAR     18  12  79 W10       30.17R WCI   6
CLINTON *      CLOUDY    30  25  80 NW13      30.19R WCI  20
DECORAH *      CLOUDY    19  16  86 W10G17    30.13R WCI   8
DUBUQUE        CLOUDY    26  22  84 W16       30.13R WCI  14
6HR MIN TEMP:  26; 6HR MAX TEMP:  31;

MONTICELLO *   CLOUDY    27  25  93 W18       30.16R WCI  13
OELWEIN *      PTCLDY    21  19  93 W13       30.16S WCI   9
WATERLOO       CLEAR     20  15  81 W8        30.19R WCI  10
6HR MIN TEMP:  20; 6HR MAX TEMP:  29;

$$

IAZ064-065-067-068-078-280100-
   EAST CENTRAL IOWA

CITY           SKY/WX    TMP DP  RH WIND       PRES   REMARKS
DAVENPORT      CLOUDY    30  24  78 W18       30.17R WCI  18
6HR MIN TEMP:  30; 6HR MAX TEMP:  33;

IOWA CITY      CLOUDY    28  21  75 W14       30.21R WCI  17
6HR MIN TEMP:  28; 6HR MAX TEMP:  33;

MT. PLEASANT * CLOUDY    29  23  77 NW12      30.20F WCI  20
MUSCATINE *    CLOUDY    30  23  74 W14       30.21S WCI  20
QUAD CITIES    CLOUDY    32  24  72 W16       30.16R WCI  21
6HR MIN TEMP:  32; 6HR MAX TEMP:  35;

$$

IAZ062-063-075>077-085>089-095>099-280100-
   SOUTHEAST IOWA

CITY           SKY/WX    TMP DP  RH WIND       PRES   REMARKS
BURLINGTON     CLOUDY    31  25  78 NW8       30.18F WCI  23
6HR MIN TEMP:  31; 6HR MAX TEMP:  36;

FAIRFIELD *    CLOUDY    28  23  80 NW12      30.21S WCI  18
FORT MADISON * CLOUDY    32  27  80 NW10G17   30.20S WCI  24
KEOKUK *       CLOUDY    32  25  74 NW9       30.19S WCI  24
OSKALOOSA *    CLOUDY    28  22  81 NW12      30.22S WCI  17
CENTERVILLE *  CLOUDY    28  23  80 NW9       30.23R WCI  20
OTTUMWA        CLOUDY    28  21  75 W10       30.21R WCI  19
6HR MIN TEMP:  28; 6HR MAX TEMP:  32;

WASHINGTON *   CLOUDY    30  27  86 NW9       30.20S WCI  22
$$

ABBREVIATIONS USED IN REMARKS
   TC - TEMPERATURES IN CELSIUS
  WCI - WIND CHILL INDEX
   HX - HEAT INDEX
  VSB - VISIBILITY
$$



USA.gov is the U.S. government's official web portal to all federal, state and local government web resources and services.